Wetterdaten: Woche 10.02.14 - 16.02.14 (KW7)
Datum Zeit Temp. A. Feuchte A. Luftdruck Regen Wind Richtung Sonnenschein ET UV Solar Taupunkt Windchill Windben
10.02.2014 00:00 0,6 C 94 % 1003,9 hPa 0,0 l/m 5,1 km/h (1 Bft) SW 0,00 h 0,000 mm 0,0 UV-I 0 W/m -0,2 C 0,3 C 8,2 km/h (2 Bft)
10.02.2014 01:00 0,6 C 94 % 1004,4 hPa 0,0 l/m 3,3 km/h (1 Bft) SW 0,00 h 0,000 mm 0,0 UV-I 0 W/m -0,2 C 0,6 C 5,4 km/h (1 Bft)
10.02.2014 02:00 0,2 C 94 % 1004,2 hPa 0,0 l/m 3,1 km/h (1 Bft) S 0,00 h 0,000 mm 0,0 UV-I 0 W/m -0,6 C 0,2 C 5,0 km/h (1 Bft)
10.02.2014 03:00 -0,1 C 95 % 1003,9 hPa 0,0 l/m 1,2 km/h (1 Bft) O-SO 0,00 h 0,000 mm 0,0 UV-I 0 W/m -0,8 C -0,1 C 2,5 km/h (1 Bft)
10.02.2014 04:00 -0,8 C 94 % 1003,9 hPa 0,0 l/m 0,2 km/h (0 Bft) O-NO 0,00 h 0,000 mm 0,0 UV-I 0 W/m -1,7 C -0,8 C 0,4 km/h (0 Bft)
10.02.2014 05:00 -2,0 C 94 % 1003,8 hPa 0,0 l/m 0,6 km/h (0 Bft) O 0,00 h 0,000 mm 0,0 UV-I 0 W/m -2,8 C -2,0 C 1,7 km/h (1 Bft)
10.02.2014 06:00 -2,6 C 94 % 1003,3 hPa 0,0 l/m 0,7 km/h (0 Bft) O-NO 0,00 h 0,000 mm 0,0 UV-I 0 W/m -3,4 C -2,6 C 1,6 km/h (1 Bft)
10.02.2014 07:00 -2,2 C 95 % 1003,0 hPa 0,0 l/m 2,8 km/h (1 Bft) O-NO 0,00 h 0,000 mm 0,0 UV-I 10 W/m -2,9 C -2,2 C 5,5 km/h (1 Bft)
10.02.2014 08:00 -1,0 C 94 % 1002,4 hPa 0,0 l/m 3,8 km/h (1 Bft) O 0,53 h 0,000 mm 0,0 UV-I 75 W/m -1,8 C -1,1 C 7,1 km/h (2 Bft)
10.02.2014 09:00 0,9 C 89 % 1002,0 hPa 0,6 l/m 5,6 km/h (1 Bft) O 1,00 h 0,025 mm 0,6 UV-I 248 W/m -0,8 C 0,3 C 10,2 km/h (2 Bft)
10.02.2014 10:00 1,8 C 83 % 1001,3 hPa 0,6 l/m 6,6 km/h (2 Bft) O 1,00 h 0,102 mm 0,8 UV-I 197 W/m -0,8 C 1,0 C 11,7 km/h (2 Bft)
10.02.2014 11:00 2,5 C 79 % 999,9 hPa 0,0 l/m 6,8 km/h (2 Bft) O-NO 1,00 h 0,076 mm 0,9 UV-I 187 W/m -0,9 C 1,0 C 12,7 km/h (3 Bft)
10.02.2014 12:00 2,9 C 77 % 999,3 hPa 0,2 l/m 8,1 km/h (2 Bft) O 1,00 h 0,076 mm 0,8 UV-I 167 W/m -0,7 C 0,9 C 14,2 km/h (3 Bft)
10.02.2014 13:00 3,1 C 75 % 998,1 hPa 0,0 l/m 9,0 km/h (2 Bft) O 1,00 h 0,076 mm 0,6 UV-I 119 W/m -0,8 C 0,7 C 17,8 km/h (3 Bft)
10.02.2014 14:00 3,6 C 72 % 996,9 hPa 0,0 l/m 8,4 km/h (2 Bft) O 1,00 h 0,076 mm 0,5 UV-I 95 W/m -0,9 C 1,7 C 16,2 km/h (3 Bft)
10.02.2014 15:00 3,8 C 70 % 997,0 hPa 0,0 l/m 6,8 km/h (2 Bft) O 0,67 h 0,051 mm 0,0 UV-I 52 W/m -1,2 C 2,7 C 12,7 km/h (3 Bft)
10.02.2014 16:00 3,8 C 71 % 996,4 hPa 0,0 l/m 6,6 km/h (2 Bft) O 0,00 h 0,051 mm 0,0 UV-I 23 W/m -1,0 C 2,6 C 11,5 km/h (2 Bft)
10.02.2014 17:00 3,4 C 72 % 996,0 hPa 0,0 l/m 6,2 km/h (2 Bft) O 0,00 h 0,025 mm 0,0 UV-I 6 W/m -1,2 C 2,6 C 11,6 km/h (2 Bft)
10.02.2014 18:00 3,3 C 74 % 996,6 hPa 0,0 l/m 5,2 km/h (1 Bft) O 0,00 h 0,025 mm 0,0 UV-I 0 W/m -1,0 C 2,7 C 9,8 km/h (2 Bft)
10.02.2014 19:00 3,2 C 74 % 996,6 hPa 0,0 l/m 5,0 km/h (1 Bft) O 0,00 h 0,025 mm 0,0 UV-I 0 W/m -0,9 C 3,0 C 8,8 km/h (2 Bft)
10.02.2014 20:00 3,0 C 76 % 996,5 hPa 0,0 l/m 4,7 km/h (1 Bft) O 0,00 h 0,025 mm 0,0 UV-I 0 W/m -0,8 C 2,8 C 9,5 km/h (2 Bft)
10.02.2014 21:00 2,7 C 79 % 997,0 hPa 0,0 l/m 3,7 km/h (1 Bft) O 0,00 h 0,025 mm 0,0 UV-I 0 W/m -0,7 C 2,6 C 7,0 km/h (2 Bft)
10.02.2014 22:00 2,3 C 81 % 997,7 hPa 0,0 l/m 0,6 km/h (0 Bft) O 0,00 h 0,025 mm 0,0 UV-I 0 W/m -0,6 C 2,3 C 1,3 km/h (1 Bft)
10.02.2014 23:00 2,0 C 83 % 998,4 hPa 0,0 l/m 0,3 km/h (0 Bft) SO 0,00 h 0,000 mm 0,0 UV-I 0 W/m -0,6 C 2,0 C 1,0 km/h (0 Bft)
11.02.2014 00:00 1,9 C 84 % 998,9 hPa 0,0 l/m 0,5 km/h (0 Bft) S 0,00 h 0,000 mm 0,0 UV-I 0 W/m -0,5 C 1,9 C 0,9 km/h (0 Bft)
11.02.2014 01:00 3,0 C 79 % 999,7 hPa 0,0 l/m 7,8 km/h (2 Bft) S-SW 0,00 h 0,000 mm 0,0 UV-I 0 W/m -0,3 C 1,3 C 12,6 km/h (3 Bft)
11.02.2014 02:00 2,7 C 83 % 1000,4 hPa 0,0 l/m 8,2 km/h (2 Bft) SW 0,00 h 0,025 mm 0,0 UV-I 0 W/m 0,2 C 1,0 C 13,3 km/h (3 Bft)
11.02.2014 03:00 2,3 C 89 % 1001,0 hPa 0,0 l/m 8,5 km/h (2 Bft) SW 0,00 h 0,025 mm 0,0 UV-I 0 W/m 0,6 C 0,3 C 13,3 km/h (3 Bft)
11.02.2014 04:00 2,4 C 92 % 1001,9 hPa 0,0 l/m 11,0 km/h (2 Bft) W-SW 0,00 h 0,000 mm 0,0 UV-I 0 W/m 1,2 C -1,4 C 17,0 km/h (3 Bft)
11.02.2014 05:00 2,8 C 90 % 1002,7 hPa 0,0 l/m 10,4 km/h (2 Bft) W-SW 0,00 h 0,000 mm 0,0 UV-I 0 W/m 1,3 C -0,6 C 16,0 km/h (3 Bft)
11.02.2014 06:00 3,0 C 88 % 1003,8 hPa 0,0 l/m 13,0 km/h (3 Bft) W-SW 0,00 h 0,000 mm 0,0 UV-I 0 W/m 1,2 C -2,0 C 19,1 km/h (3 Bft)
11.02.2014 07:00 2,9 C 85 % 1005,1 hPa 0,0 l/m 11,8 km/h (2 Bft) W 0,00 h 0,025 mm 0,0 UV-I 0 W/m 0,7 C -1,4 C 17,4 km/h (3 Bft)
11.02.2014 08:00 2,7 C 85 % 1005,9 hPa 0,0 l/m 11,1 km/h (2 Bft) W-SW 0,00 h 0,025 mm 0,0 UV-I 16 W/m 0,5 C -1,0 C 17,1 km/h (3 Bft)
11.02.2014 09:00 2,6 C 88 % 1006,3 hPa 0,0 l/m 8,4 km/h (2 Bft) W-SW 0,45 h 0,025 mm 0,0 UV-I 45 W/m 0,9 C 0,8 C 13,2 km/h (3 Bft)
11.02.2014 10:00 3,2 C 85 % 1006,6 hPa 0,0 l/m 9,6 km/h (2 Bft) W-SW 0,77 h 0,025 mm 0,5 UV-I 70 W/m 0,9 C 0,6 C 14,9 km/h (3 Bft)
11.02.2014 11:00 3,5 C 82 % 1006,8 hPa 0,0 l/m 10,1 km/h (2 Bft) W-SW 1,00 h 0,051 mm 0,6 UV-I 92 W/m 0,7 C 0,6 C 15,4 km/h (3 Bft)
11.02.2014 12:00 4,2 C 73 % 1006,7 hPa 0,0 l/m 10,2 km/h (2 Bft) W-SW 1,00 h 0,053 mm 0,6 UV-I 106 W/m -0,1 C 1,1 C 16,0 km/h (3 Bft)
11.02.2014 13:00 4,2 C 74 % 1006,5 hPa 0,0 l/m 11,6 km/h (2 Bft) W-SW 0,92 h 0,076 mm 0,6 UV-I 103 W/m 0,1 C 0,4 C 18,2 km/h (3 Bft)
11.02.2014 14:00 4,2 C 72 % 1006,5 hPa 0,0 l/m 13,3 km/h (3 Bft) W-SW 1,00 h 0,076 mm 0,7 UV-I 104 W/m -0,4 C -0,8 C 20,1 km/h (4 Bft)
11.02.2014 15:00 4,2 C 72 % 1006,5 hPa 0,0 l/m 8,3 km/h (2 Bft) W-SW 1,00 h 0,076 mm 0,0 UV-I 75 W/m -0,3 C 2,3 C 13,2 km/h (3 Bft)
11.02.2014 16:00 4,0 C 65 % 1006,5 hPa 0,0 l/m 9,7 km/h (2 Bft) W-SW 0,03 h 0,051 mm 0,0 UV-I 27 W/m -1,9 C 1,3 C 15,6 km/h (3 Bft)
11.02.2014 17:00 3,7 C 66 % 1006,6 hPa 0,0 l/m 5,8 km/h (2 Bft) W-SW 0,00 h 0,051 mm 0,0 UV-I 5 W/m -2,1 C 3,3 C 9,1 km/h (2 Bft)
11.02.2014 18:00 3,4 C 67 % 1007,3 hPa 0,0 l/m 4,2 km/h (1 Bft) S 0,00 h 0,025 mm 0,0 UV-I 0 W/m -2,1 C 3,3 C 6,8 km/h (2 Bft)
11.02.2014 19:00 3,0 C 69 % 1007,4 hPa 0,0 l/m 5,8 km/h (2 Bft) S 0,00 h 0,026 mm 0,0 UV-I 0 W/m -2,1 C 2,8 C 8,4 km/h (2 Bft)
11.02.2014 20:00 1,9 C 73 % 1007,1 hPa 0,0 l/m 4,1 km/h (1 Bft) S-SO 0,00 h 0,025 mm 0,0 UV-I 0 W/m -2,4 C 1,9 C 5,5 km/h (1 Bft)
11.02.2014 21:00 0,9 C 77 % 1007,3 hPa 0,0 l/m 2,2 km/h (1 Bft) SO 0,00 h 0,025 mm 0,0 UV-I 0 W/m -2,7 C 0,9 C 3,7 km/h (1 Bft)
11.02.2014 22:00 -0,5 C 82 % 1007,7 hPa 0,0 l/m 0,0 km/h (0 Bft) N 0,00 h 0,025 mm 0,0 UV-I 0 W/m -3,3 C -0,5 C 0,1 km/h (0 Bft)
11.02.2014 23:00 -1,9 C 87 % 1007,8 hPa 0,0 l/m 0,0 km/h (0 Bft) N 0,00 h 0,000 mm 0,0 UV-I 0 W/m -3,8 C -1,9 C 0,1 km/h (0 Bft)
12.02.2014 00:00 -2,5 C 89 % 1007,9 hPa 0,0 l/m 0,0 km/h (0 Bft) N 0,00 h 0,000 mm 0,0 UV-I 0 W/m -4,1 C -2,5 C 0,0 km/h (0 Bft)
12.02.2014 01:00 -3,1 C 90 % 1008,2 hPa 0,0 l/m 0,0 km/h (0 Bft) N 0,00 h 0,000 mm 0,0 UV-I 0 W/m -4,5 C -3,1 C 0,0 km/h (0 Bft)
12.02.2014 02:00 -3,3 C 92 % 1008,1 hPa 0,0 l/m 0,2 km/h (0 Bft) N-NO 0,00 h 0,000 mm 0,0 UV-I 0 W/m -4,4 C -3,3 C 0,6 km/h (0 Bft)
12.02.2014 03:00 -3,3 C 91 % 1007,9 hPa 0,0 l/m 0,0 km/h (0 Bft) N 0,00 h 0,000 mm 0,0 UV-I 0 W/m -4,5 C -3,3 C 0,0 km/h (0 Bft)
12.02.2014 04:00 -3,4 C 92 % 1008,3 hPa 0,0 l/m 0,0 km/h (0 Bft) N-NO 0,00 h 0,000 mm 0,0 UV-I 0 W/m -4,5 C -3,4 C 0,2 km/h (0 Bft)
12.02.2014 05:00 -3,1 C 93 % 1009,3 hPa 0,0 l/m 0,1 km/h (0 Bft) N-NO 0,00 h 0,000 mm 0,0 UV-I 0 W/m -4,0 C -3,1 C 0,4 km/h (0 Bft)
12.02.2014 06:00 -2,7 C 93 % 1010,0 hPa 0,0 l/m 1,1 km/h (1 Bft) N-NO 0,00 h 0,000 mm 0,0 UV-I 0 W/m -3,6 C -2,7 C 1,9 km/h (1 Bft)
12.02.2014 07:00 -2,2 C 92 % 1010,5 hPa 0,0 l/m 1,4 km/h (1 Bft) N 0,00 h 0,000 mm 0,0 UV-I 15 W/m -3,3 C -2,2 C 2,7 km/h (1 Bft)
12.02.2014 08:00 -1,3 C 91 % 1011,0 hPa 0,0 l/m 1,3 km/h (1 Bft) N 0,73 h 0,000 mm 0,0 UV-I 69 W/m -2,5 C -1,3 C 2,8 km/h (1 Bft)
12.02.2014 09:00 0,1 C 89 % 1011,3 hPa 0,0 l/m 0,8 km/h (0 Bft) N 0,23 h 0,025 mm 0,0 UV-I 40 W/m -1,5 C 0,1 C 1,9 km/h (1 Bft)
12.02.2014 10:00 1,1 C 87 % 1011,8 hPa 0,0 l/m 4,8 km/h (1 Bft) S 0,90 h 0,025 mm 0,0 UV-I 71 W/m -0,8 C 1,0 C 7,6 km/h (2 Bft)
12.02.2014 11:00 1,2 C 87 % 1012,4 hPa 0,0 l/m 5,5 km/h (1 Bft) S 0,13 h 0,025 mm 0,8 UV-I 44 W/m -0,8 C 0,8 C 8,5 km/h (2 Bft)
12.02.2014 12:00 1,8 C 87 % 1012,6 hPa 0,0 l/m 5,2 km/h (1 Bft) S-SO 0,87 h 0,025 mm 0,8 UV-I 120 W/m -0,1 C 1,5 C 8,1 km/h (2 Bft)
12.02.2014 13:00 2,2 C 86 % 1012,7 hPa 0,0 l/m 6,8 km/h (2 Bft) W-SW 1,00 h 0,051 mm 0,6 UV-I 99 W/m 0,1 C 0,9 C 10,3 km/h (2 Bft)
12.02.2014 14:00 2,4 C 84 % 1012,4 hPa 0,0 l/m 6,2 km/h (2 Bft) W-SW 0,92 h 0,051 mm 0,6 UV-I 87 W/m -0,0 C 1,7 C 9,1 km/h (2 Bft)
12.02.2014 15:00 2,5 C 82 % 1012,4 hPa 0,0 l/m 4,6 km/h (1 Bft) SW 0,62 h 0,051 mm 0,0 UV-I 57 W/m -0,3 C 2,4 C 7,1 km/h (2 Bft)
12.02.2014 16:00 2,5 C 81 % 1012,1 hPa 0,0 l/m 6,2 km/h (2 Bft) S 0,35 h 0,025 mm 0,0 UV-I 47 W/m -0,4 C 2,1 C 9,0 km/h (2 Bft)
12.02.2014 17:00 1,6 C 83 % 1011,9 hPa 0,0 l/m 4,5 km/h (1 Bft) S 0,00 h 0,025 mm 0,0 UV-I 8 W/m -1,0 C 1,6 C 6,9 km/h (2 Bft)
12.02.2014 18:00 1,3 C 85 % 1011,7 hPa 0,0 l/m 5,9 km/h (2 Bft) S-SO 0,00 h 0,000 mm 0,0 UV-I 0 W/m -1,0 C 1,0 C 8,1 km/h (2 Bft)
12.02.2014 19:00 1,5 C 81 % 1011,3 hPa 0,0 l/m 5,5 km/h (1 Bft) S-SO 0,00 h 0,000 mm 0,0 UV-I 0 W/m -1,3 C 1,2 C 7,9 km/h (2 Bft)
12.02.2014 20:00 0,8 C 82 % 1010,5 hPa 0,0 l/m 3,7 km/h (1 Bft) SO 0,00 h 0,025 mm 0,0 UV-I 0 W/m -2,0 C 0,8 C 5,6 km/h (1 Bft)
12.02.2014 21:00 0,1 C 83 % 1010,0 hPa 0,0 l/m 4,7 km/h (1 Bft) SO 0,00 h 0,000 mm 0,0 UV-I 0 W/m -2,4 C 0,1 C 7,3 km/h (2 Bft)
12.02.2014 22:00 0,3 C 84 % 1009,4 hPa 0,0 l/m 3,5 km/h (1 Bft) S-SO 0,00 h 0,000 mm 0,0 UV-I 0 W/m -2,1 C 0,2 C 5,5 km/h (1 Bft)
12.02.2014 23:00 -0,3 C 87 % 1008,9 hPa 0,0 l/m 1,8 km/h (1 Bft) S-SO 0,00 h 0,000 mm 0,0 UV-I 0 W/m -2,2 C -0,3 C 3,2 km/h (1 Bft)
13.02.2014 00:00 -0,1 C 88 % 1007,9 hPa 0,0 l/m 2,3 km/h (1 Bft) S-SO 0,00 h 0,000 mm 0,0 UV-I 0 W/m -1,8 C -0,1 C 4,1 km/h (1 Bft)
13.02.2014 01:00 -0,6 C 89 % 1007,3 hPa 0,0 l/m 1,8 km/h (1 Bft) S-SW 0,00 h 0,000 mm 0,0 UV-I 0 W/m -2,2 C -0,6 C 3,4 km/h (1 Bft)
13.02.2014 02:00 -0,3 C 88 % 1006,7 hPa 0,0 l/m 2,2 km/h (1 Bft) W-NW 0,00 h 0,000 mm 0,0 UV-I 0 W/m -2,0 C -0,3 C 3,8 km/h (1 Bft)
13.02.2014 03:00 0,5 C 86 % 1006,7 hPa 0,0 l/m 4,5 km/h (1 Bft) NW 0,00 h 0,000 mm 0,0 UV-I 0 W/m -1,6 C 0,0 C 6,9 km/h (2 Bft)
13.02.2014 04:00 0,4 C 88 % 1006,4 hPa 0,0 l/m 5,8 km/h (2 Bft) S-SO 0,00 h 0,000 mm 0,0 UV-I 0 W/m -1,4 C -0,4 C 9,1 km/h (2 Bft)
13.02.2014 05:00 0,8 C 86 % 1006,2 hPa 0,0 l/m 8,0 km/h (2 Bft) S 0,00 h 0,000 mm 0,0 UV-I 0 W/m -1,2 C -1,2 C 12,4 km/h (3 Bft)
13.02.2014 06:00 1,0 C 89 % 1006,0 hPa 0,0 l/m 3,1 km/h (1 Bft) SW 0,00 h 0,000 mm 0,0 UV-I 0 W/m -0,6 C 1,0 C 5,8 km/h (2 Bft)
13.02.2014 07:00 1,2 C 89 % 1005,1 hPa 0,0 l/m 3,3 km/h (1 Bft) S-SO 0,00 h 0,000 mm 0,0 UV-I 15 W/m -0,4 C 1,2 C 5,8 km/h (2 Bft)
13.02.2014 08:00 1,9 C 87 % 1005,0 hPa 0,0 l/m 4,5 km/h (1 Bft) S 0,22 h 0,000 mm 0,0 UV-I 41 W/m 0,0 C 1,4 C 7,7 km/h (2 Bft)
13.02.2014 09:00 2,8 C 85 % 1004,6 hPa 0,0 l/m 3,9 km/h (1 Bft) W-SW 1,00 h 0,025 mm 0,5 UV-I 99 W/m 0,6 C 2,7 C 6,5 km/h (2 Bft)
13.02.2014 10:00 4,2 C 83 % 1004,0 hPa 0,0 l/m 7,0 km/h (2 Bft) SW 1,00 h 0,051 mm 1,0 UV-I 209 W/m 1,5 C 3,1 C 10,5 km/h (2 Bft)
13.02.2014 11:00 5,6 C 78 % 1002,5 hPa 0,0 l/m 6,8 km/h (2 Bft) S 1,00 h 0,102 mm 1,1 UV-I 233 W/m 2,0 C 4,8 C 10,0 km/h (2 Bft)
13.02.2014 12:00 6,1 C 74 % 1000,5 hPa 0,0 l/m 4,8 km/h (1 Bft) S-SO 1,00 h 0,102 mm 1,0 UV-I 189 W/m 1,9 C 6,0 C 7,1 km/h (2 Bft)
13.02.2014 13:00 6,7 C 67 % 998,5 hPa 0,0 l/m 8,3 km/h (2 Bft) SO 1,00 h 0,102 mm 0,7 UV-I 135 W/m 1,1 C 5,0 C 12,8 km/h (3 Bft)
13.02.2014 14:00 6,4 C 70 % 997,2 hPa 0,0 l/m 10,7 km/h (2 Bft) SO 0,85 h 0,076 mm 0,6 UV-I 84 W/m 1,4 C 3,4 C 16,1 km/h (3 Bft)
13.02.2014 15:00 6,1 C 74 % 997,5 hPa 0,0 l/m 8,7 km/h (2 Bft) S-SO 0,00 h 0,076 mm 0,0 UV-I 33 W/m 1,8 C 4,3 C 12,5 km/h (3 Bft)
13.02.2014 16:00 5,8 C 76 % 996,2 hPa 0,0 l/m 7,1 km/h (2 Bft) SO 0,00 h 0,025 mm 0,0 UV-I 16 W/m 1,9 C 4,8 C 10,6 km/h (2 Bft)
13.02.2014 17:00 6,0 C 75 % 995,5 hPa 0,0 l/m 11,8 km/h (2 Bft) S-SO 0,00 h 0,025 mm 0,0 UV-I 6 W/m 1,8 C 2,2 C 17,7 km/h (3 Bft)
13.02.2014 18:00 5,3 C 82 % 996,3 hPa 0,4 l/m 14,4 km/h (3 Bft) S 0,00 h 0,025 mm 0,0 UV-I 0 W/m 2,4 C -0,0 C 22,0 km/h (4 Bft)
13.02.2014 19:00 4,4 C 89 % 996,5 hPa 0,2 l/m 14,4 km/h (3 Bft) S 0,00 h 0,025 mm 0,0 UV-I 0 W/m 2,8 C -1,1 C 20,9 km/h (4 Bft)
13.02.2014 20:00 4,9 C 90 % 997,1 hPa 0,0 l/m 11,0 km/h (2 Bft) SW 0,00 h 0,025 mm 0,0 UV-I 0 W/m 3,4 C 1,4 C 17,4 km/h (3 Bft)
13.02.2014 21:00 4,9 C 91 % 997,6 hPa 1,4 l/m 12,6 km/h (3 Bft) S 0,00 h 0,000 mm 0,0 UV-I 0 W/m 3,6 C 0,4 C 19,9 km/h (4 Bft)
13.02.2014 22:00 4,3 C 91 % 998,6 hPa 2,2 l/m 12,2 km/h (2 Bft) SW 0,00 h 0,000 mm 0,0 UV-I 0 W/m 3,0 C -0,0 C 19,1 km/h (3 Bft)
13.02.2014 23:00 3,0 C 92 % 1000,4 hPa 0,4 l/m 11,8 km/h (2 Bft) W-SW 0,00 h 0,000 mm 0,0 UV-I 0 W/m 1,8 C -1,1 C 18,0 km/h (3 Bft)
14.02.2014 00:00 2,8 C 93 % 1001,9 hPa 0,6 l/m 10,8 km/h (2 Bft) W-SW 0,00 h 0,000 mm 0,0 UV-I 0 W/m 1,7 C -0,8 C 16,1 km/h (3 Bft)
14.02.2014 01:00 2,8 C 92 % 1003,2 hPa 0,0 l/m 11,6 km/h (2 Bft) W 0,00 h 0,000 mm 0,0 UV-I 0 W/m 1,6 C -1,3 C 18,2 km/h (3 Bft)
14.02.2014 02:00 2,7 C 89 % 1004,6 hPa 0,0 l/m 14,2 km/h (3 Bft) W-NW 0,00 h 0,000 mm 0,0 UV-I 0 W/m 1,0 C -3,1 C 21,7 km/h (4 Bft)
14.02.2014 03:00 2,0 C 87 % 1006,0 hPa 0,0 l/m 13,3 km/h (3 Bft) W 0,00 h 0,025 mm 0,0 UV-I 0 W/m 0,1 C -3,3 C 20,0 km/h (4 Bft)
14.02.2014 04:00 1,8 C 88 % 1007,1 hPa 0,0 l/m 11,1 km/h (2 Bft) W-SW 0,00 h 0,000 mm 0,0 UV-I 0 W/m -0,0 C -2,2 C 16,5 km/h (3 Bft)
14.02.2014 05:00 1,5 C 88 % 1008,2 hPa 0,0 l/m 5,8 km/h (2 Bft) S-SW 0,00 h 0,025 mm 0,0 UV-I 0 W/m -0,3 C 0,8 C 9,2 km/h (2 Bft)
14.02.2014 06:00 1,1 C 90 % 1009,0 hPa 0,0 l/m 4,6 km/h (1 Bft) S 0,00 h 0,000 mm 0,0 UV-I 0 W/m -0,4 C 1,0 C 7,4 km/h (2 Bft)
14.02.2014 07:00 1,1 C 89 % 1009,9 hPa 0,0 l/m 6,3 km/h (2 Bft) W-SW 0,00 h 0,000 mm 0,0 UV-I 9 W/m -0,5 C 0,5 C 10,2 km/h (2 Bft)
14.02.2014 08:00 0,9 C 91 % 1011,0 hPa 0,0 l/m 5,8 km/h (1 Bft) S 0,00 h 0,001 mm 0,0 UV-I 21 W/m -0,4 C 0,5 C 8,8 km/h (2 Bft)
14.02.2014 09:00 1,6 C 90 % 1011,8 hPa 0,0 l/m 6,8 km/h (2 Bft) SW 0,87 h 0,000 mm 0,5 UV-I 86 W/m 0,1 C 0,6 C 11,2 km/h (2 Bft)
14.02.2014 10:00 2,0 C 88 % 1012,1 hPa 0,0 l/m 7,5 km/h (2 Bft) SW 0,93 h 0,025 mm 0,5 UV-I 65 W/m 0,2 C 0,6 C 11,7 km/h (2 Bft)
14.02.2014 11:00 3,1 C 83 % 1012,4 hPa 0,0 l/m 6,9 km/h (2 Bft) W-SW 1,00 h 0,025 mm 0,8 UV-I 196 W/m 0,6 C 1,9 C 10,9 km/h (2 Bft)
14.02.2014 12:00 4,1 C 75 % 1012,6 hPa 0,0 l/m 11,3 km/h (2 Bft) W-SW 1,00 h 0,076 mm 1,1 UV-I 155 W/m 0,1 C 0,3 C 17,1 km/h (3 Bft)
14.02.2014 13:00 4,4 C 73 % 1012,4 hPa 0,0 l/m 7,7 km/h (2 Bft) W-SW 1,00 h 0,102 mm 0,9 UV-I 152 W/m 0,1 C 3,0 C 12,1 km/h (2 Bft)
14.02.2014 14:00 4,5 C 74 % 1012,0 hPa 0,0 l/m 8,3 km/h (2 Bft) S-SO 1,00 h 0,076 mm 0,7 UV-I 138 W/m 0,3 C 2,8 C 12,0 km/h (2 Bft)
14.02.2014 15:00 5,3 C 68 % 1011,1 hPa 0,0 l/m 9,0 km/h (2 Bft) S-SO 1,00 h 0,076 mm 0,6 UV-I 216 W/m -0,1 C 3,2 C 12,5 km/h (3 Bft)
14.02.2014 16:00 5,5 C 64 % 1010,6 hPa 0,0 l/m 6,9 km/h (2 Bft) S-SO 0,58 h 0,102 mm 0,0 UV-I 63 W/m -0,7 C 4,8 C 10,3 km/h (2 Bft)
14.02.2014 17:00 4,1 C 71 % 1010,5 hPa 0,0 l/m 4,2 km/h (1 Bft) SO 0,00 h 0,051 mm 0,0 UV-I 7 W/m -0,7 C 4,1 C 6,7 km/h (2 Bft)
14.02.2014 18:00 3,2 C 75 % 1010,6 hPa 0,0 l/m 6,1 km/h (2 Bft) SO 0,00 h 0,025 mm 0,0 UV-I 0 W/m -0,9 C 2,6 C 9,9 km/h (2 Bft)
14.02.2014 19:00 3,2 C 74 % 1010,1 hPa 0,0 l/m 5,6 km/h (1 Bft) O-SO 0,00 h 0,025 mm 0,0 UV-I 0 W/m -1,0 C 2,8 C 9,0 km/h (2 Bft)
14.02.2014 20:00 3,5 C 71 % 1009,3 hPa 0,0 l/m 9,0 km/h (2 Bft) SO 0,00 h 0,025 mm 0,0 UV-I 0 W/m -1,2 C 1,3 C 14,1 km/h (3 Bft)
14.02.2014 21:00 3,7 C 69 % 1009,1 hPa 0,0 l/m 10,3 km/h (2 Bft) SO 0,00 h 0,025 mm 0,0 UV-I 0 W/m -1,4 C 0,5 C 15,1 km/h (3 Bft)
14.02.2014 22:00 4,2 C 65 % 1008,4 hPa 0,0 l/m 8,7 km/h (2 Bft) SO 0,00 h 0,025 mm 0,0 UV-I 0 W/m -1,8 C 2,1 C 13,3 km/h (3 Bft)
14.02.2014 23:00 4,3 C 63 % 1007,8 hPa 0,0 l/m 7,6 km/h (2 Bft) SO 0,00 h 0,025 mm 0,0 UV-I 0 W/m -2,2 C 3,0 C 11,7 km/h (2 Bft)
15.02.2014 00:00 4,1 C 61 % 1007,2 hPa 0,0 l/m 5,8 km/h (2 Bft) SO 0,00 h 0,025 mm 0,0 UV-I 0 W/m -2,6 C 3,7 C 9,9 km/h (2 Bft)
15.02.2014 01:00 3,5 C 65 % 1006,9 hPa 0,0 l/m 2,0 km/h (1 Bft) O 0,00 h 0,025 mm 0,0 UV-I 0 W/m -2,5 C 3,5 C 3,6 km/h (1 Bft)
15.02.2014 02:00 2,4 C 76 % 1006,7 hPa 0,0 l/m 0,1 km/h (0 Bft) S 0,00 h 0,025 mm 0,0 UV-I 0 W/m -1,4 C 2,4 C 0,4 km/h (0 Bft)
15.02.2014 03:00 2,2 C 79 % 1005,0 hPa 0,0 l/m 5,3 km/h (1 Bft) O 0,00 h 0,000 mm 0,0 UV-I 0 W/m -1,1 C 1,6 C 8,4 km/h (2 Bft)
15.02.2014 04:00 1,9 C 80 % 1004,9 hPa 0,0 l/m 2,7 km/h (1 Bft) N 0,00 h 0,000 mm 0,0 UV-I 0 W/m -1,2 C 1,8 C 4,2 km/h (1 Bft)
15.02.2014 05:00 1,5 C 81 % 1004,9 hPa 0,0 l/m 1,8 km/h (1 Bft) O-NO 0,00 h 0,025 mm 0,0 UV-I 0 W/m -1,4 C 1,5 C 3,5 km/h (1 Bft)
15.02.2014 06:00 1,5 C 84 % 1005,6 hPa 0,0 l/m 0,8 km/h (0 Bft) N 0,00 h 0,000 mm 0,0 UV-I 0 W/m -0,9 C 1,5 C 1,9 km/h (1 Bft)
15.02.2014 07:00 2,2 C 79 % 1005,3 hPa 0,0 l/m 2,9 km/h (1 Bft) N-NO 0,00 h 0,000 mm 0,0 UV-I 9 W/m -1,0 C 1,8 C 4,6 km/h (1 Bft)
15.02.2014 08:00 2,3 C 81 % 1005,6 hPa 0,0 l/m 1,1 km/h (0 Bft) N 0,00 h 0,000 mm 0,0 UV-I 26 W/m -0,6 C 2,3 C 1,8 km/h (1 Bft)
15.02.2014 09:00 3,1 C 83 % 1005,6 hPa 0,0 l/m 1,4 km/h (1 Bft) N 0,00 h 0,025 mm 0,0 UV-I 35 W/m 0,4 C 3,1 C 2,8 km/h (1 Bft)
15.02.2014 10:00 4,5 C 85 % 1005,8 hPa 0,0 l/m 0,9 km/h (0 Bft) N 0,92 h 0,025 mm 0,6 UV-I 94 W/m 2,2 C 4,5 C 2,1 km/h (1 Bft)
15.02.2014 11:00 6,0 C 81 % 1005,6 hPa 0,0 l/m 0,6 km/h (0 Bft) N-NO 1,00 h 0,051 mm 0,7 UV-I 109 W/m 3,0 C 6,0 C 1,7 km/h (1 Bft)
15.02.2014 12:00 7,7 C 73 % 1005,3 hPa 0,0 l/m 2,7 km/h (1 Bft) N 1,00 h 0,051 mm 0,8 UV-I 146 W/m 3,1 C 7,7 C 4,3 km/h (1 Bft)
15.02.2014 13:00 8,8 C 68 % 1005,0 hPa 0,0 l/m 2,2 km/h (1 Bft) N 1,00 h 0,076 mm 0,9 UV-I 177 W/m 3,2 C 8,8 C 3,9 km/h (1 Bft)
15.02.2014 14:00 9,9 C 64 % 1005,0 hPa 0,0 l/m 4,8 km/h (1 Bft) N 0,78 h 0,102 mm 0,8 UV-I 96 W/m 3,5 C 9,5 C 7,6 km/h (2 Bft)
15.02.2014 15:00 9,7 C 65 % 1005,3 hPa 0,0 l/m 3,7 km/h (1 Bft) W-NW 0,37 h 0,076 mm 0,0 UV-I 39 W/m 3,4 C 9,7 C 5,8 km/h (2 Bft)
15.02.2014 16:00 8,9 C 72 % 1005,0 hPa 0,0 l/m 2,5 km/h (1 Bft) W-SW 0,00 h 0,025 mm 0,0 UV-I 17 W/m 4,1 C 8,9 C 4,4 km/h (1 Bft)
15.02.2014 17:00 8,3 C 79 % 1004,9 hPa 0,0 l/m 0,6 km/h (0 Bft) W 0,00 h 0,025 mm 0,0 UV-I 10 W/m 4,9 C 8,3 C 1,4 km/h (1 Bft)
15.02.2014 18:00 7,5 C 83 % 1005,8 hPa 0,0 l/m 2,7 km/h (1 Bft) W-SW 0,00 h 0,000 mm 0,0 UV-I 0 W/m 4,8 C 7,5 C 4,3 km/h (1 Bft)
15.02.2014 19:00 7,4 C 85 % 1006,4 hPa 0,0 l/m 4,8 km/h (1 Bft) W-SW 0,00 h 0,025 mm 0,0 UV-I 0 W/m 5,1 C 7,1 C 7,7 km/h (2 Bft)
15.02.2014 20:00 6,7 C 87 % 1007,0 hPa 0,2 l/m 6,6 km/h (2 Bft) W-SW 0,00 h 0,025 mm 0,0 UV-I 0 W/m 4,7 C 5,8 C 10,1 km/h (2 Bft)
15.02.2014 21:00 6,0 C 88 % 1008,0 hPa 0,0 l/m 7,0 km/h (2 Bft) W-SW 0,00 h 0,025 mm 0,0 UV-I 0 W/m 4,3 C 5,1 C 10,8 km/h (2 Bft)
15.02.2014 22:00 5,4 C 88 % 1008,2 hPa 0,4 l/m 5,8 km/h (2 Bft) W-SW 0,00 h 0,000 mm 0,0 UV-I 0 W/m 3,6 C 5,1 C 9,0 km/h (2 Bft)
15.02.2014 23:00 4,8 C 92 % 1008,3 hPa 0,4 l/m 7,2 km/h (2 Bft) S 0,00 h 0,000 mm 0,0 UV-I 0 W/m 3,6 C 3,8 C 11,5 km/h (2 Bft)
16.02.2014 00:00 4,7 C 92 % 1009,2 hPa 0,0 l/m 8,7 km/h (2 Bft) SW 0,00 h 0,000 mm 0,0 UV-I 0 W/m 3,5 C 2,7 C 14,1 km/h (3 Bft)
16.02.2014 01:00 4,6 C 93 % 1009,4 hPa 0,0 l/m 8,9 km/h (2 Bft) S 0,00 h 0,000 mm 0,0 UV-I 0 W/m 3,6 C 2,6 C 13,9 km/h (3 Bft)
16.02.2014 02:00 4,6 C 93 % 1009,7 hPa 0,4 l/m 9,5 km/h (2 Bft) W-SW 0,00 h 0,000 mm 0,0 UV-I 0 W/m 3,5 C 2,0 C 14,5 km/h (3 Bft)
16.02.2014 03:00 4,5 C 92 % 1009,8 hPa 0,2 l/m 10,7 km/h (2 Bft) S-SW 0,00 h 0,000 mm 0,0 UV-I 0 W/m 3,4 C 1,2 C 16,8 km/h (3 Bft)
16.02.2014 04:00 4,4 C 93 % 1010,0 hPa 0,0 l/m 10,9 km/h (2 Bft) S-SW 0,00 h 0,000 mm 0,0 UV-I 0 W/m 3,3 C 0,9 C 16,5 km/h (3 Bft)
16.02.2014 05:00 4,4 C 92 % 1010,3 hPa 0,0 l/m 11,7 km/h (2 Bft) S 0,00 h 0,000 mm 0,0 UV-I 0 W/m 3,2 C 0,4 C 18,0 km/h (3 Bft)
16.02.2014 06:00 4,5 C 90 % 1010,6 hPa 0,0 l/m 12,1 km/h (2 Bft) S 0,00 h 0,000 mm 0,0 UV-I 0 W/m 3,0 C 0,3 C 19,4 km/h (3 Bft)
16.02.2014 07:00 4,4 C 90 % 1010,9 hPa 0,0 l/m 11,5 km/h (2 Bft) S 0,00 h 0,025 mm 0,0 UV-I 6 W/m 2,8 C 0,6 C 18,0 km/h (3 Bft)
16.02.2014 08:00 4,3 C 89 % 1011,4 hPa 0,0 l/m 11,4 km/h (2 Bft) S-SW 0,00 h 0,000 mm 0,0 UV-I 24 W/m 2,7 C 0,5 C 17,8 km/h (3 Bft)
16.02.2014 09:00 4,6 C 87 % 1011,8 hPa 0,0 l/m 12,3 km/h (3 Bft) S 0,53 h 0,025 mm 0,0 UV-I 50 W/m 2,7 C 0,3 C 19,1 km/h (3 Bft)
16.02.2014 10:00 4,8 C 86 % 1012,0 hPa 0,0 l/m 12,2 km/h (2 Bft) SW 1,00 h 0,025 mm 0,0 UV-I 74 W/m 2,7 C 0,5 C 19,4 km/h (3 Bft)
16.02.2014 11:00 5,1 C 85 % 1012,2 hPa 0,0 l/m 12,7 km/h (3 Bft) SW 1,00 h 0,051 mm 0,5 UV-I 91 W/m 2,8 C 0,6 C 19,7 km/h (3 Bft)
16.02.2014 12:00 5,3 C 84 % 1011,9 hPa 0,0 l/m 13,9 km/h (3 Bft) S 1,00 h 0,051 mm 0,6 UV-I 112 W/m 2,8 C 0,2 C 22,4 km/h (4 Bft)
16.02.2014 13:00 5,8 C 79 % 1012,0 hPa 0,0 l/m 11,0 km/h (2 Bft) SW 0,92 h 0,076 mm 0,7 UV-I 110 W/m 2,5 C 2,5 C 17,7 km/h (3 Bft)
16.02.2014 14:00 5,3 C 85 % 1012,3 hPa 0,0 l/m 8,9 km/h (2 Bft) W 0,18 h 0,076 mm 0,0 UV-I 39 W/m 2,9 C 3,1 C 13,7 km/h (3 Bft)
16.02.2014 15:00 5,0 C 88 % 1012,6 hPa 0,0 l/m 5,6 km/h (1 Bft) S-SW 0,68 h 0,025 mm 0,0 UV-I 58 W/m 3,1 C 4,5 C 9,1 km/h (2 Bft)
16.02.2014 16:00 5,1 C 84 % 1012,6 hPa 0,0 l/m 7,8 km/h (2 Bft) SW 0,10 h 0,025 mm 0,0 UV-I 22 W/m 2,7 C 3,8 C 12,3 km/h (3 Bft)
16.02.2014 17:00 4,8 C 84 % 1013,1 hPa 0,0 l/m 8,8 km/h (2 Bft) S 0,00 h 0,025 mm 0,0 UV-I 8 W/m 2,3 C 2,9 C 13,5 km/h (3 Bft)
16.02.2014 18:00 4,7 C 84 % 1013,3 hPa 0,0 l/m 9,0 km/h (2 Bft) S 0,00 h 0,025 mm 0,0 UV-I 0 W/m 2,3 C 2,5 C 13,1 km/h (3 Bft)
16.02.2014 19:00 4,5 C 86 % 1013,5 hPa 0,0 l/m 10,0 km/h (2 Bft) S-SW 0,00 h 0,025 mm 0,0 UV-I 0 W/m 2,4 C 1,6 C 15,6 km/h (3 Bft)
16.02.2014 20:00 4,3 C 88 % 1013,7 hPa 0,0 l/m 8,8 km/h (2 Bft) S 0,00 h 0,025 mm 0,0 UV-I 0 W/m 2,5 C 2,3 C 13,4 km/h (3 Bft)
16.02.2014 21:00 4,1 C 89 % 1014,1 hPa 0,0 l/m 5,5 km/h (1 Bft) W-SW 0,00 h 0,025 mm 0,0 UV-I 0 W/m 2,4 C 3,6 C 9,5 km/h (2 Bft)
16.02.2014 22:00 3,9 C 89 % 1014,4 hPa 0,0 l/m 3,0 km/h (1 Bft) W-SW 0,00 h 0,000 mm 0,0 UV-I 0 W/m 2,2 C 3,8 C 5,5 km/h (1 Bft)
16.02.2014 23:00 3,7 C 90 % 1014,7 hPa 0,0 l/m 1,9 km/h (1 Bft) S 0,00 h 0,000 mm 0,0 UV-I 0 W/m 2,2 C 3,7 C 3,1 km/h (1 Bft)
Min-Datum _ 12.02.14 15.02.14 13.02.14 - 10.02.14 - - - - - 12.02.14 14.02.14 10.02.14
_ Min-Zeit 04:05 00:19 17:27 - 01:31 - - - - - 04:05 01:50 03:07
Minimum _ -3,6 C 60 % 995,1 hPa - 0,0 km/h (0 Bft) - - - - - -4,8 C -7,6 C 0,0 km/h (0 Bft)
Max-Datum _ 15.02.14 10.02.14 16.02.14 13.02.14 13.02.14 - 11.02.14 10.02.14 14.02.14 14.02.14 15.02.14 15.02.14 13.02.14
_ Max-Zeit 13:55 07:41 23:50 22:00 18:29 - 12:08 10:00 11:47 11:47 19:29 13:55 18:14
Maximum _ 10,2 C 96 % 1014,9 hPa 2,2 l/m 27,4 km/h
S (4 Bft)
- 0,08 h 0,102 mm 1,5 UV-I 615 W/m 5,2 C 10,2 C 41,8 km/h
S (6 Bft)
Durchschnitt _ 2,9 C 83 % 1006,4 hPa #8,2 l/m 6,2 km/h (2 Bft) W-SW #43:03 h #4,249 mm 0,7 UV-I 79 W/m 0,2 C 1,5 C 9,9 km/h (2 Bft)